,,PA_Meas_PMT16A,,PR_Meas_QMR101_102,,RH_Meas_QMH101,,SR_Meas_QMS101,,TA_Meas_QMH101,,GenWind,,GenWind,
time,status,PA,status,PR,status,RH,status,SR,status,TA,status,DirAvg,status,SpdAvg,
2015-02-02, 00:00:04,VALID,919.392,VALID,0,VALID,82.5768,VALID,0,VALID,20.5219,VALID,159,VALID,0,
2015-02-02, 00:01:04,VALID,919.384,VALID,0,VALID,82.4625,VALID,0,VALID,20.5219,VALID,159,VALID,0,
2015-02-02, 00:02:04,VALID,919.383,VALID,0,VALID,82.4701,VALID,0,VALID,20.582,VALID,159,VALID,1.01523,
2015-02-02, 00:03:04,VALID,919.374,VALID,0,VALID,82.5997,VALID,0,VALID,20.5024,VALID,150,VALID,0.00078125,
2015-02-02, 00:04:04,VALID,919.403,VALID,0,VALID,83.0495,VALID,0,VALID,20.4439,VALID,127,VALID,0.310547,
2015-02-02, 00:05:04,VALID,919.408,VALID,0,VALID,83.2934,VALID,0,VALID,20.3659,VALID,151,VALID,0,
2015-02-02, 00:06:04,VALID,919.372,VALID,0,VALID,83.484,VALID,0,VALID,20.3464,VALID,111,VALID,0,
2015-02-02, 00:07:04,VALID,919.365,VALID,0,VALID,83.6975,VALID,0,VALID,20.2684,VALID,125,VALID,0.04375,
2015-02-02, 00:08:04,VALID,919.362,VALID,0,VALID,83.7356,VALID,0,VALID,20.2879,VALID,115,VALID,0.194922,
2015-02-02, 00:09:04,VALID,919.357,VALID,0,VALID,84.193,VALID,0,VALID,20.1708,VALID,108,VALID,0.0585938,
2015-02-02, 00:10:04,VALID,919.344,VALID,0,VALID,84.2769,VALID,0,VALID,20.1903,VALID,134,VALID,1.24023,
2015-02-02, 00:11:04,VALID,919.3,VALID,0,VALID,83.9872,VALID,0,VALID,20.2489,VALID,149,VALID,0,
2015-02-02, 00:12:04,VALID,919.306,VALID,0,VALID,83.9567,VALID,0,VALID,20.2293,VALID,149,VALID,0,
2015-02-02, 00:13:04,VALID,919.314,VALID,0,VALID,84.01,VALID,0,VALID,20.2293,VALID,127,VALID,0,
2015-02-02, 00:14:04,VALID,919.308,VALID,0,VALID,83.9186,VALID,0,VALID,20.2489,VALID,151,VALID,0.414063,
2015-02-02, 00:15:04,VALID,919.257,VALID,0,VALID,83.9186,VALID,0,VALID,20.2489,VALID,78,VALID,0,
2015-02-02, 00:16:04,VALID,919.207,VALID,0,VALID,84.2921,VALID,0,VALID,20.1708,VALID,98,VALID,0,
2015-02-02, 00:17:04,VALID,919.22,VALID,0,VALID,84.6962,VALID,0.107441,VALID,20.1123,VALID,98,VALID,0,
2015-02-02, 00:18:04,VALID,919.227,VALID,0,VALID,84.8867,VALID,0,VALID,20.0733,VALID,118,VALID,0.408984,
2015-02-02, 00:19:04,VALID,919.205,VALID,0,VALID,84.6123,VALID,0,VALID,20.1318,VALID,115,VALID,1.82656,
2015-02-02, 00:20:04,VALID,919.17,VALID,0,VALID,84.4065,VALID,0.107441,VALID,20.1903,VALID,175,VALID,0.230469,
2015-02-02, 00:21:04,VALID,919.172,VALID,0,VALID,84.2616,VALID,0,VALID,20.2293,VALID,173,VALID,0,
2015-02-02, 00:22:04,VALID,919.213,VALID,0,VALID,84.3074,VALID,0.107441,VALID,20.1903,VALID,178,VALID,0.00195313,
2015-02-02, 00:23:04,VALID,919.224,VALID,0,VALID,84.2997,VALID,0.107441,VALID,20.2098,VALID,158,VALID,0.0746094,
2015-02-02, 00:24:04,VALID,919.243,VALID,0,VALID,84.4751,VALID,0,VALID,20.2098,VALID,149,VALID,0.464453,
2015-02-02, 00:25:04,VALID,919.273,VALID,0,VALID,84.5742,VALID,0,VALID,20.1903,VALID,138,VALID,1.58398,
2015-02-02, 00:26:04,VALID,919.265,VALID,0,VALID,84.3379,VALID,0.107441,VALID,20.2098,VALID,136,VALID,2.29961,
2015-02-02, 00:27:04,VALID,919.264,VALID,0,VALID,84.0558,VALID,0.107441,VALID,20.2879,VALID,123,VALID,1.45117,
2015-02-02, 00:28:04,VALID,919.255,VALID,0,VALID,84.2997,VALID,0,VALID,20.1903,VALID,128,VALID,0.25625,
2015-02-02, 00:29:04,VALID,919.233,VALID,0,VALID,84.2387,VALID,0,VALID,20.1903,VALID,153,VALID,2.02031,
2015-02-02, 00:30:04,VALID,919.181,VALID,0,VALID,84.1091,VALID,0,VALID,20.1903,VALID,165,VALID,0.00664063,
2015-02-02, 00:31:04,VALID,919.205,VALID,0,VALID,84.2006,VALID,0,VALID,20.1708,VALID,157,VALID,0.0773437,
2015-02-02, 00:32:04,VALID,919.146,VALID,0,VALID,84.5513,VALID,0,VALID,20.0944,VALID,143,VALID,0.392188,
2015-02-02, 00:33:04,VALID,919.121,VALID,0,VALID,84.719,VALID,0,VALID,20.0944,VALID,136,VALID,0.365625,
2015-02-02, 00:34:04,VALID,919.098,VALID,0,VALID,84.9858,VALID,0,VALID,20.0163,VALID,129,VALID,0.953906,
2015-02-02, 00:35:04,VALID,919.092,VALID,0,VALID,85.3365,VALID,0,VALID,19.9383,VALID,135,VALID,1.52695,
2015-02-02, 00:36:04,VALID,919.063,VALID,0,VALID,85.2527,VALID,0,VALID,19.9188,VALID,143,VALID,1.89727,
2015-02-02, 00:37:04,VALID,919.066,VALID,0,VALID,84.8791,VALID,0,VALID,19.9578,VALID,115,VALID,0.170312,
2015-02-02, 00:38:04,VALID,919.035,VALID,0,VALID,85.0621,VALID,0,VALID,19.9173,VALID,142,VALID,0.403125,
2015-02-02, 00:39:04,VALID,919.017,VALID,0,VALID,85.0545,VALID,0,VALID,19.9383,VALID,141,VALID,0.0570313,
2015-02-02, 00:40:04,VALID,919.025,VALID,0,VALID,84.3455,VALID,0,VALID,19.9968,VALID,149,VALID,2.69258,
2015-02-02, 00:41:04,VALID,919.012,VALID,0,VALID,83.9186,VALID,0,VALID,20.0553,VALID,139,VALID,1.01797,
2015-02-02, 07:22:04,VALID,919.491,VALID,0,VALID,84.1549,VALID,77.7874,VALID,19.1763,INVALID,360,INVALID,0,
2015-02-02, 07:23:04,VALID,919.53,VALID,0,VALID,84.376,VALID,79.1841,VALID,19.1778,VALID,130,VALID,1.18711,
2015-02-02, 07:24:04,VALID,919.536,VALID,0,VALID,84.2387,VALID,83.6967,VALID,19.1778,VALID,141,VALID,1.01875,
2015-02-02, 07:25:04,VALID,919.56,VALID,0,VALID,84.6199,VALID,86.8125,VALID,19.2168,VALID,141,VALID,0.403125,
2015-02-02, 07:26:04,VALID,919.607,VALID,0,VALID,84.8334,VALID,80.1511,VALID,19.2558,VALID,141,VALID,0.984375,
2015-02-02, 07:27:04,VALID,919.597,VALID,0,VALID,85.2374,VALID,79.0767,VALID,19.2168,VALID,131,VALID,1.01172,
2015-02-02, 07:28:04,VALID,919.641,VALID,0,VALID,85.6643,VALID,93.9036,VALID,19.2168,VALID,137,VALID,1.00547,
2015-02-02, 07:29:04,VALID,919.661,VALID,0,VALID,85.4585,VALID,94.978,VALID,19.1778,VALID,128,VALID,1.04883,
2015-02-02, 07:30:04,VALID,919.672,VALID,0,VALID,84.9325,VALID,106.367,VALID,19.1778,VALID,126,VALID,1.32109,
2015-02-02, 07:31:04,VALID,919.666,VALID,0,VALID,84.8715,VALID,105.292,VALID,19.2168,VALID,134,VALID,1.10117,
2015-02-02, 07:32:04,VALID,919.688,VALID,0,VALID,84.6657,VALID,105.83,VALID,19.2753,VALID,149,VALID,0.948438,
2015-02-02, 07:33:04,VALID,919.71,VALID,0,VALID,84.4674,VALID,120.334,VALID,19.3323,VALID,161,VALID,1.11719,
2015-02-02, 07:34:04,VALID,919.734,VALID,0,VALID,83.6441,VALID,125.062,VALID,19.4103,VALID,147,VALID,1.72383,
2015-02-02, 07:35:04,VALID,919.734,VALID,0,VALID,83.9338,VALID,98.5235,VALID,19.4313,VALID,133,VALID,1.02227,
2015-02-02, 07:36:04,VALID,919.759,VALID,0,VALID,83.6441,VALID,111.846,VALID,19.4313,VALID,133,VALID,1.72812,
2015-02-02, 07:37:04,VALID,919.771,VALID,0,VALID,84.193,VALID,136.665,VALID,19.4103,VALID,164,VALID,1.03594,
2015-02-02, 07:38:04,VALID,919.804,VALID,0,VALID,84.0787,VALID,142.467,VALID,19.4688,VALID,156,VALID,0.831641,
2015-02-02, 07:39:04,VALID,919.814,VALID,0,VALID,83.1715,VALID,147.409,VALID,19.5078,VALID,168,VALID,1.30508,
2015-02-02, 07:40:04,VALID,919.818,VALID,0,VALID,82.8894,VALID,146.765,VALID,19.5678,VALID,140,VALID,1.71055,
2015-02-02, 07:41:04,VALID,919.823,VALID,0,VALID,82.6378,VALID,155.252,VALID,19.5873,VALID,132,VALID,1.34609,
2015-02-02, 07:42:04,VALID,919.903,VALID,0,VALID,82.7217,VALID,161.484,VALID,19.6068,VALID,130,VALID,1.29648,
2015-02-02, 07:43:04,VALID,919.939,VALID,0,VALID,82.9885,VALID,158.905,VALID,19.6068,VALID,146,VALID,1.49766,
2015-02-02, 07:44:04,VALID,919.976,VALID,0,VALID,82.3786,VALID,128.177,VALID,19.6653,VALID,148,VALID,1.34141,
2015-02-02, 07:45:04,VALID,919.969,VALID,0,VALID,82.3024,VALID,135.268,VALID,19.6653,VALID,143,VALID,1.18555,
2015-02-02, 07:46:04,VALID,919.996,VALID,0,VALID,82.371,VALID,130.756,VALID,19.6638,VALID,154,VALID,0.646094,
2015-02-02, 07:47:04,VALID,920.001,VALID,0,VALID,81.9822,VALID,113.673,VALID,19.6833,VALID,142,VALID,0.145313,
2015-02-02, 07:48:04,VALID,920.03,VALID,0,VALID,82.1347,VALID,108.516,VALID,19.6638,VALID,150,VALID,1.45742,
2015-02-02, 07:49:04,VALID,920.005,VALID,0,VALID,81.906,VALID,105.507,VALID,19.6443,VALID,165,VALID,0.722266,
2015-02-02, 07:50:04,VALID,920.052,VALID,0,VALID,82.6759,VALID,108.838,VALID,19.6443,VALID,152,VALID,0.915625,
2015-02-02, 07:51:04,VALID,920.04,VALID,0,VALID,82.7522,VALID,121.194,VALID,19.6443,VALID,157,VALID,1.26719,
2015-02-02, 07:52:04,VALID,920.048,VALID,0,VALID,81.9898,VALID,137.525,VALID,19.6248,VALID,151,VALID,1.52148,
2015-02-02, 07:53:04,VALID,920.06,VALID,0,VALID,82.3786,VALID,116.681,VALID,19.6053,VALID,152,VALID,0.390625,
2015-02-02, 07:54:04,VALID,920.062,VALID,0,VALID,82.5845,VALID,111.416,VALID,19.6053,VALID,161,VALID,0.0917969,
2015-02-02, 07:55:04,VALID,920.063,VALID,0,VALID,82.3405,VALID,113.243,VALID,19.5858,VALID,151,VALID,0.221875,
2015-02-02, 07:56:04,VALID,920.067,VALID,0,VALID,82.1804,VALID,125.276,VALID,19.5858,VALID,164,VALID,0.785547,
2015-02-02, 07:57:04,VALID,920.106,VALID,0,VALID,82.4777,VALID,151.062,VALID,19.5468,VALID,169,VALID,0.0191406,
2015-02-02, 07:58:04,VALID,920.08,VALID,0,VALID,83.0342,VALID,174.377,VALID,19.5468,VALID,161,VALID,0.00195313,
2015-02-02, 07:59:04,VALID,920.124,VALID,0,VALID,82.6912,VALID,168.253,VALID,19.5663,VALID,150,VALID,0.255469,
2015-02-02, 08:00:04,VALID,920.124,VALID,0,VALID,82.8284,VALID,181.683,VALID,19.5858,VALID,144,VALID,0,
2015-02-02, 08:01:04,VALID,920.149,VALID,0,VALID,82.9809,VALID,168.038,VALID,19.6638,VALID,142,VALID,0.400781,
2015-02-02, 08:02:04,VALID,920.127,VALID,0,VALID,82.5463,VALID,169.22,VALID,19.6833,VALID,149,VALID,0.190625,
2015-02-02, 08:03:04,VALID,920.142,VALID,0,VALID,83.3621,VALID,205.642,VALID,19.7028,VALID,140,VALID,0,
2015-02-02, 08:04:04,VALID,920.132,VALID,0,VALID,82.2719,VALID,190.278,VALID,19.7418,VALID,167,VALID,1.23516,
2015-02-02, 08:05:04,VALID,920.13,VALID,0,VALID,82.5692,VALID,205.75,VALID,19.7613,VALID,157,VALID,0.294531,
2015-02-02, 08:06:04,VALID,920.135,VALID,0,VALID,82.5159,VALID,216.064,VALID,19.8393,VALID,160,VALID,0,
2015-02-02, 08:07:04,VALID,920.135,VALID,0,VALID,82.4167,VALID,253.883,VALID,19.9563,VALID,132,VALID,0.00234375,
2015-02-02, 08:08:04,VALID,920.118,VALID,0,VALID,82.4015,VALID,215.205,VALID,19.9758,VALID,124,VALID,0.0289063,
2015-02-02, 08:09:04,VALID,920.118,VALID,0,VALID,82.4777,VALID,216.601,VALID,20.0538,VALID,119,VALID,0.00585938,
2015-02-02, 08:10:04,VALID,920.167,VALID,0,VALID,82.3558,VALID,210.155,VALID,20.1693,VALID,116,VALID,0.175391,
2015-02-02, 08:11:04,VALID,920.168,VALID,0,VALID,81.6544,VALID,191.353,VALID,20.1888,VALID,136,VALID,0.878516,
2015-02-02, 08:12:04,VALID,920.146,VALID,0,VALID,79.0091,VALID,198.981,VALID,20.1708,VALID,108,VALID,0,
2015-02-02, 08:13:04,VALID,920.191,VALID,0,VALID,80.7625,VALID,220.254,VALID,20.1903,VALID,113,VALID,0,
2015-02-02, 08:14:04,VALID,920.186,VALID,0,VALID,79.375,VALID,240.776,VALID,20.1513,VALID,114,VALID,1.40586,
2015-02-02, 08:15:04,VALID,920.189,VALID,0,VALID,80.854,VALID,208.221,VALID,20.1693,VALID,128,VALID,0.957422,
2015-02-02, 08:16:04,VALID,920.169,VALID,0,VALID,80.7777,VALID,199.841,VALID,20.3074,VALID,128,VALID,0,
2015-02-02, 08:17:04,VALID,920.212,VALID,0,VALID,79.6876,VALID,280.314,VALID,20.3253,VALID,118,VALID,0.00234375,
2015-02-02, 08:18:04,VALID,920.221,VALID,0,VALID,78.1934,VALID,328.555,VALID,20.3269,VALID,108,VALID,1.6957,
2015-02-02, 08:19:04,VALID,920.213,VALID,0,VALID,79.0472,VALID,303.629,VALID,20.3659,VALID,130,VALID,0.316797,
2015-02-02, 08:20:04,VALID,920.234,VALID,0,VALID,78.5288,VALID,313.513,VALID,20.4228,VALID,158,VALID,0,
2015-02-02, 08:21:04,VALID,920.279,VALID,0,VALID,78.5364,VALID,273.653,VALID,20.5414,VALID,156,VALID,0.0210938,
2015-02-02, 08:22:04,VALID,920.281,VALID,0,VALID,77.6064,VALID,256.247,VALID,20.5594,VALID,96,VALID,2.28945,
2015-02-02, 08:23:04,VALID,920.323,VALID,0,VALID,76.257,VALID,237.552,VALID,20.5789,VALID,134,VALID,1.06562,
2015-02-02, 08:24:04,VALID,920.328,VALID,0,VALID,76.1656,VALID,224.337,VALID,20.5984,VALID,133,VALID,1.0293,
2015-02-02, 08:25:04,VALID,920.323,VALID,0,VALID,77.6902,VALID,280.529,VALID,20.5789,VALID,133,VALID,0,
2015-02-02, 08:26:04,VALID,920.349,VALID,0,VALID,76.966,VALID,352.622,VALID,20.6179,VALID,138,VALID,1.21484,
2015-02-02, 08:27:04,VALID,920.367,VALID,0,VALID,77.8427,VALID,347.357,VALID,20.7365,VALID,175,VALID,0.0980469,
2015-02-02, 08:28:04,VALID,920.343,VALID,0,VALID,76.4629,VALID,264.735,VALID,20.8145,VALID,147,VALID,1.10469,
2015-02-02, 08:29:04,VALID,920.37,VALID,0,VALID,76.9736,VALID,301.372,VALID,20.8324,VALID,103,VALID,0.285547,
2015-02-02, 08:30:04,VALID,920.367,VALID,0,VALID,77.1642,VALID,319.852,VALID,20.9105,VALID,138,VALID,0.0945313,
2015-02-02, 08:31:04,VALID,920.374,VALID,0,VALID,76.5467,VALID,399.036,VALID,20.9885,VALID,137,VALID,0.355078,
2015-02-02, 08:32:04,VALID,920.389,VALID,0,VALID,74.7323,VALID,366.697,VALID,21.0454,VALID,156,VALID,0.169141,
2015-02-02, 08:33:04,VALID,920.426,VALID,0,VALID,74.2444,VALID,299.976,VALID,21.221,VALID,122,VALID,0.615234,
2015-02-02, 08:34:04,VALID,920.408,VALID,0,VALID,72.5216,VALID,285.471,VALID,21.1445,VALID,97,VALID,2.39336,
2015-02-02, 08:35:04,VALID,920.427,VALID,0,VALID,73.3678,VALID,310.505,VALID,20.9479,VALID,104,VALID,0.0417969,
2015-02-02, 08:36:04,VALID,920.414,VALID,0,VALID,73.9471,VALID,434.17,VALID,20.912,VALID,117,VALID,0.00585938,
2015-02-02, 08:37:04,VALID,920.43,VALID,0,VALID,76.4095,VALID,399.681,VALID,21.1055,VALID,81,VALID,0,
2015-02-02, 08:38:04,VALID,920.391,VALID,0,VALID,74.2978,VALID,430.302,VALID,21.3201,VALID,83,VALID,0,
2015-02-02, 08:39:04,VALID,920.432,VALID,0,VALID,72.6207,VALID,436.319,VALID,21.4355,VALID,100,VALID,2.32188,
2015-02-02, 08:40:04,VALID,920.409,VALID,0,VALID,73.1238,VALID,446.418,VALID,21.338,VALID,104,VALID,1.65234,
2015-02-02, 08:41:04,VALID,920.376,VALID,0,VALID,73.261,VALID,449.211,VALID,21.299,VALID,92,VALID,1.61406,
2015-02-02, 08:42:04,VALID,920.396,VALID,0,VALID,74.5341,VALID,435.889,VALID,21.26,VALID,92,VALID,2.0707,
2015-02-02, 08:43:04,VALID,920.4,VALID,0,VALID,74.6409,VALID,348.539,VALID,21.1819,VALID,85,VALID,2.20078,
2015-02-02, 08:44:04,VALID,920.391,VALID,0,VALID,73.566,VALID,468.658,VALID,21.1819,VALID,69,VALID,2.20078,
2015-02-02, 08:45:04,VALID,920.414,VALID,0,VALID,74.5646,VALID,403.656,VALID,21.221,VALID,106,VALID,0.999219,
2015-02-02, 08:46:04,VALID,920.436,VALID,0,VALID,75.205,VALID,398.177,VALID,21.2811,VALID,78,VALID,1.12266,
2015-02-02, 08:47:04,VALID,920.46,VALID,0,VALID,75.5633,VALID,363.688,VALID,21.3786,VALID,63,VALID,0.248828,
2015-02-02, 08:48:04,VALID,920.394,VALID,0,VALID,74.9611,VALID,299.868,VALID,21.4355,VALID,103,VALID,1.91719,
2015-02-02, 08:49:04,VALID,920.438,VALID,0,VALID,73.7261,VALID,250.445,VALID,21.4355,VALID,121,VALID,2.14648,
2015-02-02, 08:50:04,VALID,920.441,VALID,0,VALID,74.2368,VALID,286.331,VALID,21.3965,VALID,111,VALID,1.60508,
2015-02-02, 08:51:04,VALID,920.455,VALID,0,VALID,73.9395,VALID,270.429,VALID,21.338,VALID,88,VALID,2.30898,
2015-02-02, 08:52:04,VALID,920.457,VALID,0,VALID,74.557,VALID,425.252,VALID,21.299,VALID,74,VALID,1.37539,
2015-02-02, 08:53:04,VALID,920.449,VALID,0,VALID,72.6893,VALID,212.196,VALID,21.299,VALID,47,VALID,2.94414,
2015-02-02, 08:54:04,VALID,920.508,VALID,0,VALID,74.6561,VALID,309.216,VALID,21.2015,VALID,104,VALID,2.68125,
2015-02-02, 08:55:04,VALID,920.536,VALID,0,VALID,74.4884,VALID,253.991,VALID,21.1234,VALID,131,VALID,0.699219,
2015-02-02, 08:56:04,VALID,920.589,VALID,0,VALID,74.8772,VALID,380.234,VALID,21.1624,VALID,100,VALID,0.00195313,
2015-02-02, 08:57:04,VALID,920.602,VALID,0,VALID,74.0996,VALID,290.091,VALID,21.299,VALID,86,VALID,0,
2015-02-02, 08:58:04,VALID,920.643,VALID,0,VALID,72.8341,VALID,313.728,VALID,21.3965,VALID,72,VALID,2.51055,
2015-02-02, 08:59:04,VALID,920.598,VALID,0,VALID,73.7794,VALID,489.717,VALID,21.3575,VALID,49,VALID,1.21758,
2015-02-02, 09:00:04,VALID,920.665,VALID,0,VALID,72.7731,VALID,457.377,VALID,21.3575,VALID,117,VALID,0.635938,
2015-02-02, 09:01:04,VALID,920.656,VALID,0,VALID,74.1835,VALID,285.793,VALID,21.3965,VALID,138,VALID,0.273438,
2015-02-02, 09:02:04,VALID,920.669,VALID,0,VALID,70.9511,VALID,267.636,VALID,21.4941,VALID,108,VALID,0.00585938,
2015-02-02, 09:03:04,VALID,920.671,VALID,0,VALID,72.27,VALID,299.438,VALID,21.6306,VALID,127,VALID,0,
2015-02-02, 09:04:04,VALID,920.658,VALID,0,VALID,71.2256,VALID,477.791,VALID,21.7087,VALID,161,VALID,0.916797,
2015-02-02, 09:05:04,VALID,920.667,VALID,0,VALID,72.7503,VALID,501.32,VALID,21.7282,VALID,114,VALID,1.08828,
2015-02-02, 09:06:04,VALID,920.665,VALID,0,VALID,73.3068,VALID,466.187,VALID,21.9038,VALID,92,VALID,0.570703,
2015-02-02, 09:07:04,VALID,920.645,VALID,0,VALID,73.1467,VALID,509.916,VALID,21.9818,VALID,93,VALID,1.52266,
2015-02-02, 09:08:04,VALID,920.66,VALID,0,VALID,72.6512,VALID,507.874,VALID,22.0208,VALID,69,VALID,0.791406,
2015-02-02, 09:09:04,VALID,920.647,VALID,0,VALID,71.5991,VALID,504.759,VALID,22.1379,VALID,76,VALID,1.87578,
2015-02-02, 09:10:04,VALID,920.616,VALID,0,VALID,71.1951,VALID,508.197,VALID,22.3525,VALID,87,VALID,1.92969,
2015-02-02, 09:11:04,VALID,920.669,VALID,0,VALID,69.739,VALID,510.883,VALID,22.4891,VALID,93,VALID,0.100391,
2015-02-02, 09:12:04,VALID,920.672,VALID,0,VALID,69.6933,VALID,511.957,VALID,22.6647,VALID,95,VALID,0.590234,
2015-02-02, 09:13:04,VALID,920.678,VALID,0,VALID,69.8534,VALID,517.544,VALID,22.6647,VALID,136,VALID,1.93242,
2015-02-02, 09:14:04,VALID,920.711,VALID,0,VALID,69.7009,VALID,522.916,VALID,22.585,VALID,111,VALID,0.725391,
2015-02-02, 09:15:04,VALID,920.757,VALID,0,VALID,69.3197,VALID,525.495,VALID,22.6435,VALID,85,VALID,1.71953,
2015-02-02, 09:16:04,VALID,920.727,VALID,0,VALID,68.7861,VALID,529.255,VALID,22.4501,VALID,110,VALID,2.67812,
2015-02-02, 09:17:04,VALID,920.735,VALID,0,VALID,68.687,VALID,532.263,VALID,22.3916,VALID,120,VALID,1.49844,
2015-02-02, 09:18:04,VALID,920.752,VALID,0,VALID,70.1507,VALID,536.669,VALID,22.4094,VALID,75,VALID,2.32969,
2015-02-02, 09:19:04,VALID,920.762,VALID,0,VALID,71.2866,VALID,521.197,VALID,22.5281,VALID,54,VALID,1.32109,
2015-02-02, 09:20:04,VALID,920.794,VALID,0,VALID,68.5803,VALID,532.478,VALID,22.5655,VALID,105,VALID,1.16562,
2015-02-02, 09:21:04,VALID,920.756,VALID,0,VALID,68.3515,VALID,547.52,VALID,22.5477,VALID,92,VALID,1.19492,
2015-02-02, 09:22:04,VALID,920.782,VALID,0,VALID,67.6273,VALID,550.528,VALID,22.5086,VALID,115,VALID,3.03555,
2015-02-02, 09:23:04,VALID,920.741,VALID,0,VALID,69.922,VALID,558.801,VALID,22.5477,VALID,58,VALID,1.81992,
2015-02-02, 09:24:04,VALID,920.796,VALID,0,VALID,69.678,VALID,571.05,VALID,22.5086,VALID,133,VALID,0.597266,
2015-02-02, 09:25:04,VALID,920.839,VALID,0,VALID,67.2004,VALID,559.231,VALID,22.5477,VALID,87,VALID,2.67891,
2015-02-02, 09:26:04,VALID,920.807,VALID,0,VALID,70.387,VALID,494.122,VALID,22.5672,VALID,65,VALID,0.940234,
2015-02-02, 09:27:04,VALID,920.784,VALID,0,VALID,66.9336,VALID,410.962,VALID,22.6257,VALID,63,VALID,3.38203,
2015-02-02, 09:28:04,VALID,920.823,VALID,0,VALID,66.9107,VALID,483.485,VALID,22.4891,VALID,71,VALID,2.18242,
2015-02-02, 09:29:04,VALID,920.853,VALID,0,VALID,69.4646,VALID,577.711,VALID,22.4289,VALID,91,VALID,0.910156,
2015-02-02, 09:30:04,VALID,920.814,VALID,0,VALID,68.382,VALID,612.844,VALID,22.5477,VALID,50,VALID,2.86719,
2015-02-02, 09:31:04,VALID,920.818,VALID,0,VALID,68.2067,VALID,507.122,VALID,22.5655,VALID,35,VALID,2.29609,
2015-02-02, 09:32:04,VALID,920.914,VALID,0,VALID,68.3668,VALID,418.698,VALID,22.6843,VALID,76,VALID,1.35938,
2015-02-02, 09:33:04,VALID,920.918,VALID,0,VALID,67.7112,VALID,365.945,VALID,22.6647,VALID,108,VALID,2.00742,
2015-02-02, 09:34:04,VALID,920.868,VALID,0,VALID,65.691,VALID,680.425,VALID,22.6452,VALID,75,VALID,2.35625,
2015-02-02, 09:35:04,VALID,920.902,VALID,0,VALID,69.8229,VALID,312.654,VALID,22.7038,VALID,77,VALID,2.20937,
2015-02-02, 09:36:04,VALID,920.931,VALID,0,VALID,69.8152,VALID,305.885,VALID,22.7233,VALID,98,VALID,0.519922,
2015-02-02, 09:37:04,VALID,920.947,VALID,0,VALID,66.4533,VALID,319.423,VALID,22.6257,VALID,52,VALID,2.29453,
2015-02-02, 09:38:04,VALID,920.91,VALID,0,VALID,67.269,VALID,329.952,VALID,22.4289,VALID,58,VALID,2.7668,
2015-02-02, 09:39:04,VALID,920.89,VALID,0,VALID,68.443,VALID,362.077,VALID,22.3135,VALID,58,VALID,3.50742,
2015-02-02, 09:40:04,VALID,920.901,VALID,0,VALID,67.8484,VALID,329.844,VALID,22.1362,VALID,87,VALID,2.6125,
2015-02-02, 09:41:04,VALID,920.878,VALID,0,VALID,66.4991,VALID,327.803,VALID,22.0582,VALID,53,VALID,4.10938,
2015-02-02, 09:42:04,INVALID - VALUE NOT AVAILABLE,0,VALID,0,VALID,66.0569,VALID,359.82,VALID,21.9216,INVALID,360,INVALID,0,
2015-02-02, 09:43:04,VALID,920.879,VALID,0,VALID,67.9094,VALID,374.11,VALID,21.9801,VALID,56,VALID,1.75273,
2015-02-02, 09:44:04,VALID,920.907,VALID,0,VALID,69.9448,VALID,422.459,VALID,22.0989,VALID,89,VALID,0.632813,
2015-02-02, 09:45:04,VALID,920.883,VALID,0,VALID,69.556,VALID,430.624,VALID,22.1752,VALID,94,VALID,2.17227,
2015-02-02, 09:46:04,VALID,920.874,VALID,0,VALID,63.9147,VALID,458.989,VALID,22.1362,VALID,68,VALID,2.83711,
2015-02-02, 09:47:04,VALID,920.83,VALID,0,VALID,68.5345,VALID,551.281,VALID,22.1362,VALID,62,VALID,2.88555,
2015-02-02, 09:48:04,VALID,920.855,VALID,0,VALID,68.9081,VALID,520.767,VALID,22.1574,VALID,106,VALID,1.08125,
2015-02-02, 09:49:04,VALID,920.851,VALID,0,VALID,67.2157,VALID,484.022,VALID,22.1964,VALID,100,VALID,1.95977,
2015-02-02, 09:50:04,VALID,920.855,VALID,0,VALID,70.2117,VALID,659.689,VALID,22.2923,VALID,76,VALID,1.87148,
2015-02-02, 09:51:04,VALID,920.794,VALID,0,VALID,67.4672,VALID,594.472,VALID,22.4679,VALID,60,VALID,2.42109,
2015-02-02, 09:52:04,VALID,920.746,VALID,0,VALID,66.1941,VALID,558.587,VALID,22.5655,VALID,28,VALID,1.3082,
2015-02-02, 09:53:04,VALID,920.713,VALID,0,VALID,66.1941,VALID,671.077,VALID,22.7233,VALID,50,VALID,2.03477,
2015-02-02, 09:54:04,VALID,920.714,VALID,0,VALID,64.4102,VALID,555.363,VALID,22.7801,VALID,123,VALID,2.29648,
2015-02-02, 09:55:04,VALID,920.666,VALID,0,VALID,66.3466,VALID,582.976,VALID,22.7021,VALID,82,VALID,2.97031,
2015-02-02, 09:56:04,VALID,920.56,VALID,0,VALID,64.7228,VALID,548.38,VALID,22.7021,VALID,79,VALID,3.23086,
2015-02-02, 09:57:04,VALID,920.659,VALID,0,VALID,63.8385,VALID,538.71,VALID,22.5442,VALID,79,VALID,4.09219,
2015-02-02, 09:58:04,VALID,920.668,VALID,0,VALID,66.2551,VALID,521.09,VALID,22.4289,VALID,72,VALID,2.23672,
2015-02-02, 09:59:04,VALID,920.593,VALID,0,VALID,64.2959,VALID,559.231,VALID,22.3703,VALID,73,VALID,3.86211,
2015-02-02, 10:00:04,VALID,920.625,VALID,0,VALID,65.9426,VALID,503.147,VALID,22.4289,VALID,54,VALID,1.28398,
2015-02-02, 10:01:04,VALID,920.568,VALID,0,VALID,65.2259,VALID,537.421,VALID,22.5069,VALID,58,VALID,2.27578,
2015-02-02, 10:02:04,VALID,920.625,VALID,0,VALID,65.6224,VALID,526.569,VALID,22.585,VALID,63,VALID,2.35352,
2015-02-02, 10:03:04,VALID,920.6,VALID,0,VALID,63.6479,VALID,456.947,VALID,22.585,VALID,62,VALID,2.02734,
2015-02-02, 10:04:04,VALID,920.614,VALID,0,VALID,63.5869,VALID,453.724,VALID,22.5264,VALID,88,VALID,2.32656,
2015-02-02, 10:05:04,VALID,920.579,VALID,0,VALID,66.7964,VALID,541.933,VALID,22.5655,VALID,63,VALID,0.0105469,
2015-02-02, 10:06:04,VALID,920.564,VALID,0,VALID,66.7811,VALID,521.09,VALID,22.7411,VALID,41,VALID,0.815234,
2015-02-02, 10:07:04,VALID,920.58,VALID,0,VALID,67.269,VALID,500.891,VALID,23.0125,VALID,56,VALID,0.0289063,
2015-02-02, 10:08:04,VALID,920.588,VALID,0,VALID,63.8156,VALID,463.716,VALID,23.307,VALID,75,VALID,1.4,
2015-02-02, 10:09:04,VALID,920.585,VALID,0,VALID,64.6389,VALID,470.055,VALID,23.307,VALID,28,VALID,2.09063,
2015-02-02, 10:10:04,VALID,920.622,VALID,0,VALID,64.9668,VALID,450.931,VALID,23.2077,VALID,87,VALID,1.3668,
2015-02-02, 10:11:04,VALID,920.586,VALID,0,VALID,64.2425,VALID,486.708,VALID,23.1296,VALID,48,VALID,2.2,
2015-02-02, 10:12:04,VALID,920.594,VALID,0,VALID,65.0735,VALID,585.232,VALID,23.1314,VALID,25,VALID,1.83789,
2015-02-02, 10:13:04,VALID,920.547,VALID,0,VALID,63.1676,VALID,492.188,VALID,23.1527,VALID,39,VALID,3.02109,
2015-02-02, 10:14:04,VALID,920.592,VALID,0,VALID,63.8461,VALID,581.364,VALID,23.0924,VALID,79,VALID,2.01641,
2015-02-02, 10:15:04,VALID,920.581,VALID,0,VALID,63.4649,VALID,474.675,VALID,23.1119,VALID,52,VALID,1.53008,
2015-02-02, 10:16:04,VALID,920.59,VALID,0,VALID,63.1829,VALID,448.137,VALID,23.1314,VALID,78,VALID,1.78711,
2015-02-02, 10:17:04,VALID,920.646,VALID,0,VALID,63.343,VALID,456.517,VALID,23.1314,VALID,107,VALID,1.06094,